TimeEDT,TemperatureF,Dew PointF,Humidity,Sea Level PressureIn,VisibilityMPH,Wind Direction,Wind SpeedMPH,Gust SpeedMPH,PrecipitationIn,Events,Conditions,WindDirDegrees,DateUTC
12:54 AM,63.0,53.1,70,30.26,10.0,SW,12.7,-,N/A,,Partly Cloudy,220,2013-06-21 04:54:00
1:54 AM,62.1,53.1,72,30.25,10.0,SW,11.5,-,N/A,,Partly Cloudy,220,2013-06-21 05:54:00
2:54 AM,62.1,53.1,72,30.24,10.0,SW,12.7,-,N/A,,Partly Cloudy,220,2013-06-21 06:54:00
3:54 AM,61.0,53.1,75,30.24,10.0,SW,11.5,-,N/A,,Partly Cloudy,220,2013-06-21 07:54:00
4:54 AM,61.0,53.1,75,30.24,10.0,SW,11.5,-,N/A,,Scattered Clouds,220,2013-06-21 08:54:00
5:54 AM,61.0,52.0,72,30.25,10.0,SW,9.2,-,N/A,,Scattered Clouds,220,2013-06-21 09:54:00
6:54 AM,64.0,52.0,65,30.25,10.0,WSW,10.4,-,N/A,,Scattered Clouds,240,2013-06-21 10:54:00
7:54 AM,66.9,54.0,63,30.25,10.0,SW,11.5,-,N/A,,Scattered Clouds,230,2013-06-21 11:54:00
8:54 AM,70.0,55.9,61,30.24,10.0,WSW,12.7,-,N/A,,Partly Cloudy,240,2013-06-21 12:54:00
9:54 AM,73.0,57.0,57,30.24,10.0,SW,6.9,-,N/A,,Scattered Clouds,230,2013-06-21 13:54:00
10:54 AM,77.0,57.9,52,30.24,10.0,West,11.5,16.1,N/A,,Scattered Clouds,280,2013-06-21 14:54:00
11:54 AM,79.0,59.0,50,30.24,10.0,Variable,3.5,-,N/A,,Scattered Clouds,0,2013-06-21 15:54:00
12:54 PM,82.0,60.1,47,30.23,10.0,Variable,4.6,-,N/A,,Scattered Clouds,0,2013-06-21 16:54:00
1:54 PM,81.0,59.0,47,30.22,10.0,Variable,5.8,17.3,N/A,,Mostly Cloudy,0,2013-06-21 17:54:00
2:54 PM,84.0,55.0,37,30.20,10.0,SW,9.2,-,N/A,,Mostly Cloudy,230,2013-06-21 18:54:00
3:54 PM,77.0,61.0,58,30.20,10.0,East,9.2,-,N/A,,Mostly Cloudy,90,2013-06-21 19:54:00
4:54 PM,78.1,62.1,58,30.19,10.0,ESE,8.1,-,N/A,,Mostly Cloudy,120,2013-06-21 20:54:00
5:54 PM,78.1,61.0,56,30.19,10.0,SE,6.9,-,N/A,,Mostly Cloudy,130,2013-06-21 21:54:00
6:54 PM,75.9,61.0,60,30.20,10.0,ENE,8.1,-,N/A,,Mostly Cloudy,60,2013-06-21 22:54:00
7:54 PM,72.0,63.0,73,30.21,10.0,East,4.6,-,N/A,,Scattered Clouds,80,2013-06-21 23:54:00
8:54 PM,73.0,63.0,71,30.21,10.0,Calm,Calm,-,N/A,,Scattered Clouds,0,2013-06-22 00:54:00
9:54 PM,73.9,63.0,68,30.22,9.0,SSW,8.1,-,N/A,,Scattered Clouds,210,2013-06-22 01:54:00
10:54 PM,69.1,61.0,75,30.22,10.0,SSW,4.6,-,N/A,,Scattered Clouds,200,2013-06-22 02:54:00
11:54 PM,70.0,59.0,68,30.23,10.0,SSW,9.2,-,N/A,,Scattered Clouds,210,2013-06-22 03:54:00